VOYAGER:1:PRINTED,ON:,1-OCT-01:16:51:12:V179062S29
START_TIME,STOP_TIME,SECTOR,SCAN_DIR,P1FLUX,P1UNC,P10FLUX,P10UNC,P11FLUX,P11UNC,M6FLUX,M6UNC,M7FLUX,M7UNC
1979-03-03 00:00:11.980 ,1979-03-03 00:00:17.920 ,3,1,11.2,4.58,0.553,0.226,0.359,8.037E-02,7.783E-02,7.783E-02,0.000E+00,0.000E+00
1979-03-03 00:00:18.350 ,1979-03-03 00:00:41.920 ,4,1,65.4,5.21,1.54,0.184,0.783,8.587E-02,1.71,0.258,0.000E+00,0.000E+00
1979-03-03 00:00:42.350 ,1979-03-03 00:01:05.920 ,5,1,141.,7.77,2.54,0.244,0.841,9.225E-02,5.37,0.456,0.000E+00,0.000E+00
1979-03-03 00:01:06.350 ,1979-03-03 00:01:29.920 ,6,1,129.,7.38,3.04,0.281,0.842,9.357E-02,6.38,0.498,0.000E+00,0.000E+00
1979-03-03 00:01:30.350 ,1979-03-03 00:01:53.920 ,7,1,156.,8.45,2.13,0.228,0.744,8.634E-02,6.54,0.504,0.000E+00,0.000E+00
1979-03-03 00:01:54.350 ,1979-03-03 00:02:35.920 ,8,1,0.000E+00,0.000E+00,5.645E-02,3.259E-02,0.195,3.905E-02,0.208,7.335E-02,0.000E+00,0.000E+00
1979-03-03 00:02:35.980 ,1979-03-03 00:02:41.540 ,8,-1,0.000E+00,0.000E+00,0.000E+00,0.000E+00,0.187,9.372E-02,0.000E+00,0.000E+00,0.000E+00,0.000E+00
1979-03-03 00:02:42.350 ,1979-03-03 00:03:05.920 ,7,-1,154.,8.35,2.72,0.261,0.881,0.109,-1.00,-1.00,0.000E+00,0.000E+00
1979-03-03 00:03:06.350 ,1979-03-03 00:03:29.920 ,6,-1,160.,8.29,2.36,0.228,0.986,9.800E-02,9.18,0.845,0.000E+00,0.000E+00
1979-03-03 00:03:30.350 ,1979-03-03 00:03:53.920 ,5,-1,148.,7.99,2.29,0.230,0.804,8.978E-02,3.42,0.516,0.000E+00,0.000E+00
1979-03-03 00:03:54.350 ,1979-03-03 00:04:17.920 ,4,-1,82.1,6.07,1.45,0.178,0.751,8.391E-02,1.71,0.365,0.000E+00,0.000E+00
1979-03-03 00:04:18.350 ,1979-03-03 00:04:41.920 ,3,-1,105.,6.94,0.415,8.131E-02,0.572,6.565E-02,0.311,0.156,0.000E+00,0.000E+00
1979-03-03 00:04:42.350 ,1979-03-03 00:05:05.920 ,2,-1,126.,7.88,0.349,7.282E-02,0.552,6.331E-02,7.783E-02,7.783E-02,0.000E+00,0.000E+00
1979-03-03 00:05:05.980 ,1979-03-03 00:05:30.350 ,1,-1,93.3,10.4,1.44,0.289,0.687,8.094E-02,1.45,0.194,0.000E+00,0.000E+00
1979-03-03 00:05:30.350 ,1979-03-03 00:05:53.920 ,1,1,123.,7.58,1.30,0.168,0.579,7.477E-02,1.25,0.311,0.000E+00,0.000E+00
1979-03-03 00:05:54.350 ,1979-03-03 00:06:17.920 ,2,1,53.8,4.97,0.179,4.796E-02,0.386,5.063E-02,0.000E+00,0.000E+00,0.000E+00,0.000E+00
1979-03-03 00:06:18.350 ,1979-03-03 00:06:41.920 ,3,1,57.3,4.96,0.802,0.127,0.468,6.555E-02,0.233,0.135,0.000E+00,0.000E+00
1979-03-03 00:06:42.350 ,1979-03-03 00:07:05.920 ,4,1,90.3,6.27,1.07,0.148,0.570,7.297E-02,2.41,0.433,0.000E+00,0.000E+00
1979-03-03 00:07:06.360 ,1979-03-03 00:07:29.920 ,5,1,108.,6.68,3.34,0.305,0.700,8.676E-02,4.28,0.577,0.000E+00,0.000E+00
1979-03-03 00:07:30.360 ,1979-03-03 00:07:53.920 ,6,1,121.,7.09,3.38,0.292,1.03,0.103,8.10,0.905,0.000E+00,0.000E+00
1979-03-03 00:07:54.360 ,1979-03-03 00:08:17.920 ,7,1,72.1,5.52,3.54,0.301,0.829,9.380E-02,6.07,0.687,0.000E+00,0.000E+00
1979-03-03 00:08:18.360 ,1979-03-03 00:08:59.920 ,8,1,0.000E+00,0.000E+00,0.000E+00,0.000E+00,0.187,3.825E-02,0.000E+00,0.000E+00,0.000E+00,0.000E+00
1979-03-03 00:08:59.980 ,1979-03-03 00:09:05.920 ,8,-1,0.000E+00,0.000E+00,0.000E+00,0.000E+00,0.211,7.028E-02,0.000E+00,0.000E+00,0.000E+00,0.000E+00
1979-03-03 00:09:06.350 ,1979-03-03 00:09:29.920 ,7,-1,57.7,4.96,2.10,0.217,1.02,0.113,-1.00,-1.00,0.000E+00,0.000E+00
1979-03-03 00:09:30.350 ,1979-03-03 00:09:53.920 ,6,-1,46.0,4.34,3.30,0.281,1.02,0.102,6.07,0.687,0.000E+00,0.000E+00
1979-03-03 00:09:54.350 ,1979-03-03 00:10:17.920 ,5,-1,72.9,5.50,1.79,0.196,0.817,8.859E-02,3.81,0.545,0.000E+00,0.000E+00
1979-03-03 00:10:18.350 ,1979-03-03 00:10:41.920 ,4,-1,36.5,3.95,1.29,0.168,0.554,7.333E-02,1.40,0.330,0.000E+00,0.000E+00
1979-03-03 00:10:42.350 ,1979-03-03 00:11:05.920 ,3,-1,13.3,2.43,5.533E-02,2.258E-02,0.266,3.686E-02,0.000E+00,0.000E+00,0.000E+00,0.000E+00
1979-03-03 00:11:06.350 ,1979-03-03 00:11:29.920 ,2,-1,9.35,1.99,9.264E-02,3.274E-02,0.258,3.979E-02,0.000E+00,0.000E+00,0.000E+00,0.000E+00
1979-03-03 00:11:29.980 ,1979-03-03 00:11:54.350 ,1,-1,52.2,7.69,1.44,0.340,0.359,6.148E-02,0.778,0.142,0.000E+00,0.000E+00
1979-03-03 00:11:54.350 ,1979-03-03 00:12:17.920 ,1,1,72.3,5.64,0.681,0.120,0.470,6.460E-02,0.856,0.258,0.000E+00,0.000E+00
1979-03-03 00:12:18.350 ,1979-03-03 00:12:41.920 ,2,1,6.31,1.69,6.373E-02,2.850E-02,0.139,3.033E-02,0.000E+00,0.000E+00,0.000E+00,0.000E+00
1979-03-03 00:12:42.350 ,1979-03-03 00:13:05.920 ,3,1,5.75,1.54,0.119,4.209E-02,0.171,3.571E-02,0.000E+00,0.000E+00,0.000E+00,0.000E+00
1979-03-03 00:13:06.350 ,1979-03-03 00:13:29.920 ,4,1,26.3,3.45,0.969,0.146,0.409,6.311E-02,1.01,0.281,0.000E+00,0.000E+00
1979-03-03 00:13:30.350 ,1979-03-03 00:13:53.920 ,5,1,45.3,4.34,1.19,0.169,0.456,6.717E-02,3.58,0.528,0.000E+00,0.000E+00
1979-03-03 00:13:54.350 ,1979-03-03 00:14:17.920 ,6,1,38.1,3.99,0.732,0.119,0.578,7.051E-02,5.29,0.642,0.000E+00,0.000E+00
1979-03-03 00:14:18.350 ,1979-03-03 00:14:41.920 ,7,1,28.8,3.56,0.498,9.089E-02,0.524,6.498E-02,5.45,0.650,0.000E+00,0.000E+00
1979-03-03 00:14:42.350 ,1979-03-03 00:15:23.920 ,8,1,0.000E+00,0.000E+00,1.882E-02,1.882E-02,9.372E-02,2.705E-02,0.000E+00,0.000E+00,0.000E+00,0.000E+00
1979-03-03 00:15:23.980 ,1979-03-03 00:15:29.920 ,8,-1,0.000E+00,0.000E+00,0.000E+00,0.000E+00,0.000E+00,0.000E+00,0.000E+00,0.000E+00,0.000E+00,0.000E+00
1979-03-03 00:15:30.350 ,1979-03-03 00:15:53.920 ,7,-1,7.94,1.77,0.279,6.575E-02,0.358,6.051E-02,-1.00,-1.00,0.137,0.137
1979-03-03 00:15:54.350 ,1979-03-03 00:16:17.920 ,6,-1,9.84,1.97,0.434,8.680E-02,0.400,5.765E-02,5.92,0.678,0.000E+00,0.000E+00
1979-03-03 00:16:18.350 ,1979-03-03 00:16:41.920 ,5,-1,13.3,2.25,1.24,0.168,0.476,6.859E-02,2.57,0.447,0.000E+00,0.000E+00
1979-03-03 00:16:42.350 ,1979-03-03 00:17:05.920 ,4,-1,8.22,1.75,0.977,0.149,0.368,6.041E-02,0.700,0.233,0.000E+00,0.000E+00
1979-03-03 00:17:06.350 ,1979-03-03 00:17:29.920 ,3,-1,8.21,1.83,0.249,7.512E-02,0.115,3.322E-02,0.000E+00,0.000E+00,0.000E+00,0.000E+00
1979-03-03 00:17:30.350 ,1979-03-03 00:17:53.920 ,2,-1,8.44,1.84,0.379,9.475E-02,0.122,3.524E-02,0.000E+00,0.000E+00,0.000E+00,0.000E+00
1979-03-03 00:17:53.980 ,1979-03-03 00:18:18.350 ,1,-1,11.8,3.56,0.501,0.167,0.445,6.112E-02,0.467,0.110,0.000E+00,0.000E+00
1979-03-03 00:18:18.350 ,1979-03-03 00:18:41.920 ,1,1,5.40,1.39,1.12,0.168,0.339,5.897E-02,0.467,0.191,0.000E+00,0.000E+00
1979-03-03 00:18:42.350 ,1979-03-03 00:19:05.920 ,2,1,13.5,2.38,0.244,6.776E-02,0.176,3.934E-02,0.000E+00,0.000E+00,0.000E+00,0.000E+00
1979-03-03 00:19:06.350 ,1979-03-03 00:19:29.920 ,3,1,8.06,1.85,0.102,3.871E-02,0.154,3.370E-02,0.000E+00,0.000E+00,0.000E+00,0.000E+00
1979-03-03 00:19:30.350 ,1979-03-03 00:19:53.920 ,4,1,6.28,1.52,0.846,0.141,0.343,5.799E-02,0.934,0.270,0.000E+00,0.000E+00
1979-03-03 00:19:54.350 ,1979-03-03 00:20:17.920 ,5,1,11.6,2.09,1.38,0.181,0.438,6.678E-02,1.79,0.373,0.000E+00,0.000E+00
1979-03-03 00:20:18.350 ,1979-03-03 00:20:41.920 ,6,1,10.0,2.00,0.307,6.874E-02,0.404,5.553E-02,4.05,0.561,0.000E+00,0.000E+00
1979-03-03 00:20:42.350 ,1979-03-03 00:21:05.920 ,7,1,7.54,1.73,0.245,5.942E-02,0.385,5.294E-02,3.74,0.539,0.000E+00,0.000E+00
1979-03-03 00:21:06.350 ,1979-03-03 00:21:47.920 ,8,1,0.000E+00,0.000E+00,1.408E-02,9.954E-03,3.419E-02,1.208E-02,0.000E+00,0.000E+00,0.000E+00,0.000E+00
1979-03-03 00:21:47.980 ,1979-03-03 00:21:53.920 ,8,-1,0.000E+00,0.000E+00,0.000E+00,0.000E+00,7.029E-02,4.058E-02,0.000E+00,0.000E+00,0.000E+00,0.000E+00
1979-03-03 00:21:54.350 ,1979-03-03 00:22:17.920 ,7,-1,5.91,1.52,0.245,6.320E-02,0.271,4.645E-02,2.18,0.412,0.000E+00,0.000E+00
1979-03-03 00:22:18.350 ,1979-03-03 00:22:41.920 ,6,-1,7.54,1.73,0.255,6.181E-02,0.359,5.185E-02,2.96,0.480,0.000E+00,0.000E+00
1979-03-03 00:22:42.350 ,1979-03-03 00:23:05.920 ,5,-1,11.2,2.11,0.989,0.146,0.547,7.124E-02,1.32,0.321,0.000E+00,0.000E+00
1979-03-03 00:23:06.350 ,1979-03-03 00:23:29.920 ,4,-1,6.37,1.54,0.740,0.131,0.261,5.117E-02,0.545,0.206,0.000E+00,0.000E+00
1979-03-03 00:23:30.350 ,1979-03-03 00:23:53.920 ,3,-1,11.9,2.42,3.268E-02,3.268E-02,0.176,4.536E-02,0.000E+00,0.000E+00,0.000E+00,0.000E+00
1979-03-03 00:23:54.350 ,1979-03-03 00:24:17.920 ,2,-1,11.1,2.31,4.076E-02,2.353E-02,8.673E-02,2.405E-02,0.000E+00,0.000E+00,0.000E+00,0.000E+00
1979-03-03 00:24:17.980 ,1979-03-03 00:24:42.350 ,1,-1,9.15,3.05,1.02,0.246,0.429,6.458E-02,0.259,8.200E-02,0.000E+00,0.000E+00
1979-03-03 00:24:42.350 ,1979-03-03 00:25:05.920 ,1,1,8.51,1.77,1.18,0.166,0.412,6.435E-02,0.389,0.174,0.000E+00,0.000E+00
1979-03-03 00:25:06.350 ,1979-03-03 00:25:23.920 ,2,1,11.6,2.67,5.078E-02,2.932E-02,0.117,3.906E-02,-1.00,-1.00,-1.00,-1.00
1979-03-03 00:25:23.980 ,1979-03-03 00:25:47.980 ,9,0,8.52,1.90,0.114,4.303E-02,0.127,2.845E-02,0.000E+00,0.000E+00,0.000E+00,0.000E+00
1979-03-03 00:25:47.980 ,1979-03-03 00:26:11.980 ,9,0,10.6,2.08,0.106,3.752E-02,0.182,3.213E-02,0.117,6.740E-02,0.000E+00,0.000E+00
1979-03-03 00:26:11.980 ,1979-03-03 00:26:17.920 ,4,1,9.75,3.98,0.134,9.470E-02,0.118,4.452E-02,0.233,0.135,0.000E+00,0.000E+00
1979-03-03 00:26:18.350 ,1979-03-03 00:26:41.920 ,5,1,11.1,2.03,1.56,0.193,0.478,8.079E-02,1.56,0.246,0.000E+00,0.000E+00
1979-03-03 00:26:42.350 ,1979-03-03 00:27:05.920 ,6,1,4.01,1.21,0.527,9.787E-02,0.421,6.018E-02,2.61,0.318,0.000E+00,0.000E+00
1979-03-03 00:27:06.350 ,1979-03-03 00:27:29.920 ,7,1,5.30,1.42,0.397,8.265E-02,0.373,5.559E-02,3.97,0.393,0.000E+00,0.000E+00
1979-03-03 00:27:30.350 ,1979-03-03 00:28:11.920 ,8,1,0.000E+00,0.000E+00,3.919E-02,1.960E-02,3.832E-02,1.448E-02,0.156,6.353E-02,0.000E+00,0.000E+00
1979-03-03 00:28:11.980 ,1979-03-03 00:28:17.920 ,8,-1,0.000E+00,0.000E+00,0.000E+00,0.000E+00,7.029E-02,4.058E-02,0.000E+00,0.000E+00,0.000E+00,0.000E+00
1979-03-03 00:28:18.350 ,1979-03-03 00:28:41.920 ,7,-1,4.87,1.35,0.434,9.046E-02,0.366,5.568E-02,-1.00,-1.00,0.000E+00,0.000E+00
1979-03-03 00:28:42.350 ,1979-03-03 00:29:05.920 ,6,-1,7.72,1.73,0.448,8.781E-02,0.422,5.913E-02,2.65,0.454,0.000E+00,0.000E+00
1979-03-03 00:29:06.350 ,1979-03-03 00:29:29.920 ,5,-1,9.74,1.91,1.06,0.151,0.481,6.800E-02,1.63,0.357,0.000E+00,0.000E+00
1979-03-03 00:29:30.350 ,1979-03-03 00:29:53.920 ,4,-1,7.70,1.77,0.232,6.448E-02,0.196,4.076E-02,0.233,0.135,0.000E+00,0.000E+00
1979-03-03 00:29:54.350 ,1979-03-03 00:30:17.920 ,3,-1,7.16,1.74,0.127,4.783E-02,0.103,2.967E-02,0.000E+00,0.000E+00,0.000E+00,0.000E+00
1979-03-03 00:30:18.350 ,1979-03-03 00:30:41.920 ,2,-1,7.13,1.78,3.450E-02,1.992E-02,9.774E-02,2.444E-02,0.000E+00,0.000E+00,0.000E+00,0.000E+00
1979-03-03 00:30:41.980 ,1979-03-03 00:31:06.350 ,1,-1,4.69,2.34,3.170E-02,3.170E-02,0.126,2.621E-02,4.636E-02,1.892E-02,3.418E-02,3.418E-02
1979-03-03 00:31:06.350 ,1979-03-03 00:31:29.920 ,1,1,8.73,1.86,0.415,9.273E-02,0.216,4.500E-02,7.783E-02,7.783E-02,0.000E+00,0.000E+00
1979-03-03 00:31:30.350 ,1979-03-03 00:31:53.920 ,2,1,9.82,2.09,4.366E-02,2.183E-02,0.141,2.870E-02,0.000E+00,0.000E+00,0.000E+00,0.000E+00
1979-03-03 00:31:54.350 ,1979-03-03 00:32:17.920 ,3,1,9.35,2.04,4.952E-02,2.476E-02,0.117,2.745E-02,7.783E-02,7.783E-02,0.000E+00,0.000E+00
1979-03-03 00:32:18.350 ,1979-03-03 00:32:41.920 ,4,1,8.52,1.90,9.394E-02,3.549E-02,0.179,3.513E-02,0.389,0.174,0.000E+00,0.000E+00
1979-03-03 00:32:42.350 ,1979-03-03 00:33:05.920 ,5,1,7.38,1.65,0.936,0.138,0.519,6.938E-02,1.01,0.281,0.000E+00,0.000E+00
1979-03-03 00:33:06.350 ,1979-03-03 00:33:29.920 ,6,1,7.76,1.74,0.474,9.668E-02,0.291,5.141E-02,2.26,0.419,0.000E+00,0.000E+00
1979-03-03 00:33:30.350 ,1979-03-03 00:33:53.920 ,7,1,4.28,1.29,0.168,4.654E-02,0.354,4.867E-02,3.50,0.522,0.000E+00,0.000E+00
1979-03-03 00:33:54.350 ,1979-03-03 00:34:35.920 ,8,1,0.000E+00,0.000E+00,1.224E-02,8.653E-03,4.207E-02,1.268E-02,0.000E+00,0.000E+00,0.000E+00,0.000E+00
1979-03-03 00:34:35.980 ,1979-03-03 00:34:41.920 ,8,-1,0.000E+00,0.000E+00,0.000E+00,0.000E+00,7.029E-02,4.058E-02,0.000E+00,0.000E+00,0.000E+00,0.000E+00
1979-03-03 00:34:42.350 ,1979-03-03 00:35:05.920 ,7,-1,7.44,1.75,0.128,4.263E-02,0.242,4.083E-02,-1.00,-1.00,0.000E+00,0.000E+00
1979-03-03 00:35:06.350 ,1979-03-03 00:35:29.920 ,6,-1,6.36,1.59,0.181,4.831E-02,0.381,5.046E-02,2.80,0.467,0.000E+00,0.000E+00
1979-03-03 00:35:30.350 ,1979-03-03 00:35:53.920 ,5,-1,5.84,1.51,0.650,0.108,0.531,6.733E-02,1.40,0.330,0.000E+00,0.000E+00
1979-03-03 00:35:54.350 ,1979-03-03 00:36:17.920 ,4,-1,11.6,2.27,0.211,6.353E-02,0.143,3.565E-02,0.467,0.191,0.000E+00,0.000E+00
1979-03-03 00:36:18.350 ,1979-03-03 00:36:41.920 ,3,-1,7.69,1.92,3.268E-02,3.268E-02,0.164,4.382E-02,0.000E+00,0.000E+00,0.000E+00,0.000E+00
1979-03-03 00:36:42.350 ,1979-03-03 00:37:05.920 ,2,-1,12.0,2.35,3.450E-02,1.992E-02,9.774E-02,2.444E-02,0.000E+00,0.000E+00,0.000E+00,0.000E+00
1979-03-03 00:37:05.980 ,1979-03-03 00:37:30.350 ,1,-1,15.9,4.42,6.239E-02,4.411E-02,0.177,3.287E-02,0.208,7.335E-02,0.000E+00,0.000E+00
1979-03-03 00:37:30.350 ,1979-03-03 00:37:53.920 ,1,1,6.92,1.63,0.543,0.113,0.216,4.614E-02,0.156,0.110,0.000E+00,0.000E+00
1979-03-03 00:37:54.350 ,1979-03-03 00:38:17.920 ,2,1,8.09,1.91,3.450E-02,1.992E-02,9.774E-02,2.444E-02,0.000E+00,0.000E+00,0.000E+00,0.000E+00
1979-03-03 00:38:18.350 ,1979-03-03 00:38:41.920 ,3,1,9.08,1.98,9.686E-02,3.953E-02,0.111,2.958E-02,0.000E+00,0.000E+00,0.000E+00,0.000E+00
1979-03-03 00:38:42.350 ,1979-03-03 00:39:05.920 ,4,1,9.96,2.03,0.196,5.668E-02,0.216,4.147E-02,0.311,0.156,0.000E+00,0.000E+00
1979-03-03 00:39:06.350 ,1979-03-03 00:39:29.920 ,5,1,5.62,1.45,0.515,9.905E-02,0.420,5.992E-02,1.71,0.365,0.000E+00,0.000E+00
1979-03-03 00:39:30.350 ,1979-03-03 00:39:53.920 ,6,1,4.76,1.37,0.136,4.087E-02,0.323,4.561E-02,3.19,0.498,0.000E+00,0.000E+00
1979-03-03 00:39:54.350 ,1979-03-03 00:40:17.920 ,7,1,7.54,1.73,0.233,5.650E-02,0.420,5.421E-02,2.10,0.404,0.000E+00,0.000E+00
1979-03-03 00:40:18.350 ,1979-03-03 00:40:59.920 ,8,1,0.000E+00,0.000E+00,2.192E-02,1.265E-02,4.839E-02,1.458E-02,0.000E+00,0.000E+00,0.000E+00,0.000E+00
1979-03-03 00:40:59.980 ,1979-03-03 00:41:05.920 ,8,-1,0.000E+00,0.000E+00,0.000E+00,0.000E+00,4.686E-02,3.313E-02,0.000E+00,0.000E+00,0.000E+00,0.000E+00
1979-03-03 00:41:06.350 ,1979-03-03 00:41:29.920 ,7,-1,6.40,1.60,0.186,5.172E-02,0.297,4.638E-02,2.33,0.426,0.000E+00,0.000E+00
1979-03-03 00:41:30.350 ,1979-03-03 00:41:53.920 ,6,-1,6.36,1.59,0.211,5.638E-02,0.293,4.692E-02,3.27,0.504,0.000E+00,0.000E+00
1979-03-03 00:41:54.350 ,1979-03-03 00:42:17.920 ,5,-1,7.87,1.76,0.349,7.793E-02,0.317,5.146E-02,1.09,0.291,0.000E+00,0.000E+00
1979-03-03 00:42:18.350 ,1979-03-03 00:42:41.920 ,4,-1,8.69,1.85,0.400,8.733E-02,0.275,4.943E-02,0.389,0.174,0.000E+00,0.000E+00
1979-03-03 00:42:42.350 ,1979-03-03 00:43:05.920 ,3,-1,6.52,1.68,4.732E-02,2.366E-02,0.125,2.793E-02,0.000E+00,0.000E+00,0.000E+00,0.000E+00
1979-03-03 00:43:06.350 ,1979-03-03 00:43:29.920 ,2,-1,12.4,2.33,9.961E-02,4.065E-02,0.105,2.909E-02,0.000E+00,0.000E+00,0.000E+00,0.000E+00
1979-03-03 00:43:29.980 ,1979-03-03 00:43:54.350 ,1,-1,10.1,3.35,0.213,9.534E-02,0.264,4.517E-02,0.156,6.353E-02,0.000E+00,0.000E+00
1979-03-03 00:43:54.350 ,1979-03-03 00:44:17.920 ,1,1,12.9,2.31,0.237,6.119E-02,0.288,4.735E-02,0.156,0.110,0.000E+00,0.000E+00
1979-03-03 00:44:18.350 ,1979-03-03 00:44:41.920 ,2,1,9.31,2.08,2.106E-02,1.489E-02,7.403E-02,2.053E-02,0.000E+00,0.000E+00,0.000E+00,0.000E+00
1979-03-03 00:44:42.350 ,1979-03-03 00:45:05.920 ,3,1,11.5,2.30,4.391E-02,2.535E-02,6.621E-02,2.207E-02,0.000E+00,0.000E+00,0.000E+00,0.000E+00
1979-03-03 00:45:06.350 ,1979-03-03 00:45:29.920 ,4,1,8.68,1.89,0.179,5.406E-02,0.199,3.982E-02,0.389,0.174,0.000E+00,0.000E+00
1979-03-03 00:45:30.350 ,1979-03-03 00:45:53.920 ,5,1,8.27,1.80,0.373,8.126E-02,0.321,5.211E-02,2.10,0.404,0.000E+00,0.000E+00
1979-03-03 00:45:54.350 ,1979-03-03 00:46:17.920 ,6,1,8.53,1.82,0.514,9.888E-02,0.355,5.608E-02,4.35,0.663,0.000E+00,0.000E+00
1979-03-03 00:46:18.350 ,1979-03-03 00:46:41.920 ,7,1,4.26,1.28,0.210,5.810E-02,0.281,4.617E-02,1.25,0.311,0.000E+00,0.000E+00
1979-03-03 00:46:42.350 ,1979-03-03 00:47:23.920 ,8,1,0.215,0.215,1.224E-02,8.653E-03,4.207E-02,1.268E-02,0.000E+00,0.000E+00,0.000E+00,0.000E+00
1979-03-03 00:47:23.980 ,1979-03-03 00:47:29.920 ,8,-1,0.000E+00,0.000E+00,0.000E+00,0.000E+00,0.187,6.625E-02,0.000E+00,0.000E+00,0.000E+00,0.000E+00
1979-03-03 00:47:30.350 ,1979-03-03 00:47:53.920 ,7,-1,9.07,1.93,0.152,4.393E-02,0.336,4.710E-02,1.32,0.321,0.000E+00,0.000E+00
1979-03-03 00:47:54.350 ,1979-03-03 00:48:17.920 ,6,-1,6.40,1.60,0.185,5.122E-02,0.302,4.660E-02,2.41,0.433,0.000E+00,0.000E+00
1979-03-03 00:48:18.350 ,1979-03-03 00:48:41.920 ,5,-1,8.12,1.82,0.180,5.186E-02,0.344,4.865E-02,0.963,0.257,0.132,0.132
1979-03-03 00:48:42.350 ,1979-03-03 00:49:05.920 ,4,-1,9.03,2.02,8.974E-02,3.391E-02,0.193,3.580E-02,0.156,0.110,0.000E+00,0.000E+00
1979-03-03 00:49:06.350 ,1979-03-03 00:49:29.920 ,3,-1,8.06,1.95,4.047E-02,2.337E-02,7.609E-02,2.293E-02,0.000E+00,0.000E+00,0.000E+00,0.000E+00
1979-03-03 00:49:30.350 ,1979-03-03 00:49:53.920 ,2,-1,9.35,2.04,6.289E-02,3.145E-02,7.756E-02,2.452E-02,0.000E+00,0.000E+00,0.000E+00,0.000E+00
1979-03-03 00:49:53.980 ,1979-03-03 00:50:18.350 ,1,-1,9.20,3.25,0.108,6.245E-02,0.212,3.804E-02,0.182,6.861E-02,0.000E+00,0.000E+00
1979-03-03 00:50:18.350 ,1979-03-03 00:50:41.920 ,1,1,9.79,2.00,0.267,6.881E-02,0.229,4.396E-02,0.156,0.110,0.000E+00,0.000E+00
1979-03-03 00:50:42.350 ,1979-03-03 00:51:05.920 ,2,1,12.0,2.50,9.573E-03,9.573E-03,4.218E-02,1.491E-02,0.000E+00,0.000E+00,0.000E+00,0.000E+00
1979-03-03 00:51:06.350 ,1979-03-03 00:51:29.920 ,3,1,7.83,1.90,1.861E-02,1.316E-02,8.758E-02,2.124E-02,0.000E+00,0.000E+00,0.000E+00,0.000E+00
1979-03-03 00:51:30.350 ,1979-03-03 00:51:53.920 ,4,1,6.48,1.62,0.174,5.249E-02,0.210,4.049E-02,7.783E-02,7.783E-02,0.000E+00,0.000E+00
1979-03-03 00:51:54.350 ,1979-03-03 00:52:17.920 ,5,1,6.45,1.61,0.463,9.268E-02,0.349,5.507E-02,1.56,0.348,0.000E+00,0.000E+00
1979-03-03 00:52:18.350 ,1979-03-03 00:52:41.920 ,6,1,6.14,1.58,0.113,3.773E-02,0.256,4.090E-02,2.88,0.473,0.000E+00,0.000E+00
1979-03-03 00:52:42.350 ,1979-03-03 00:53:05.920 ,7,1,5.85,1.51,0.228,5.538E-02,0.434,5.470E-02,1.01,0.281,0.000E+00,0.000E+00
1979-03-03 00:53:06.350 ,1979-03-03 00:53:47.920 ,8,1,0.000E+00,0.000E+00,1.096E-02,7.747E-03,4.897E-02,1.308E-02,0.000E+00,0.000E+00,0.000E+00,0.000E+00
1979-03-03 00:53:47.980 ,1979-03-03 00:53:53.920 ,8,-1,0.000E+00,0.000E+00,6.376E-02,6.376E-02,6.504E-02,3.252E-02,0.000E+00,0.000E+00,0.000E+00,0.000E+00
1979-03-03 00:53:54.350 ,1979-03-03 00:54:17.920 ,7,-1,6.75,1.69,0.188,5.020E-02,0.358,4.965E-02,0.934,0.270,0.000E+00,0.000E+00
1979-03-03 00:54:18.350 ,1979-03-03 00:54:41.920 ,6,-1,9.46,1.97,0.186,5.172E-02,0.297,4.638E-02,1.40,0.330,0.000E+00,0.000E+00
1979-03-03 00:54:42.350 ,1979-03-03 00:55:05.920 ,5,-1,6.93,1.63,0.435,8.869E-02,0.352,5.489E-02,1.48,0.339,0.000E+00,0.000E+00
1979-03-03 00:55:06.350 ,1979-03-03 00:55:29.920 ,4,-1,8.09,1.91,3.123E-02,1.803E-02,0.113,2.523E-02,0.000E+00,0.000E+00,0.000E+00,0.000E+00
1979-03-03 00:55:30.350 ,1979-03-03 00:55:53.920 ,3,-1,7.37,1.84,5.771E-02,2.886E-02,0.105,2.705E-02,0.000E+00,0.000E+00,0.000E+00,0.000E+00
1979-03-03 00:55:54.350 ,1979-03-03 00:56:17.920 ,2,-1,10.6,2.17,7.985E-02,3.571E-02,9.414E-02,2.717E-02,0.000E+00,0.000E+00,0.000E+00,0.000E+00
1979-03-03 00:56:17.980 ,1979-03-03 00:56:42.350 ,1,-1,5.44,2.43,0.145,7.236E-02,0.281,4.386E-02,2.594E-02,2.594E-02,0.000E+00,0.000E+00
1979-03-03 00:56:42.350 ,1979-03-03 00:57:05.920 ,1,1,9.96,2.03,0.194,5.591E-02,0.221,4.182E-02,0.000E+00,0.000E+00,0.000E+00,0.000E+00
1979-03-03 00:57:06.350 ,1979-03-03 00:57:29.920 ,2,1,6.55,1.75,3.450E-02,1.992E-02,9.774E-02,2.444E-02,0.000E+00,0.000E+00,0.000E+00,0.000E+00
1979-03-03 00:57:30.350 ,1979-03-03 00:57:53.920 ,3,1,8.57,1.97,3.359E-02,1.939E-02,0.102,2.466E-02,0.000E+00,0.000E+00,0.000E+00,0.000E+00
1979-03-03 00:57:54.350 ,1979-03-03 00:58:17.920 ,4,1,7.47,1.76,0.148,4.933E-02,0.160,3.583E-02,0.156,0.110,0.000E+00,0.000E+00
1979-03-03 00:58:18.350 ,1979-03-03 00:58:41.920 ,5,1,11.2,2.16,0.180,4.981E-02,0.317,4.724E-02,0.934,0.270,0.000E+00,0.000E+00
1979-03-03 00:58:42.350 ,1979-03-03 00:59:05.920 ,6,1,7.01,1.70,0.305,6.823E-02,0.410,5.570E-02,0.856,0.258,0.000E+00,0.000E+00
1979-03-03 00:59:06.350 ,1979-03-03 00:59:29.920 ,7,1,7.09,1.72,8.652E-02,3.058E-02,0.285,4.071E-02,0.663,0.200,0.127,0.127
1979-03-03 00:59:30.350 ,1979-03-03 00:00:11.920 ,8,1,0.000E+00,0.000E+00,1.882E-02,1.882E-02,0.102,2.816E-02,0.000E+00,0.000E+00,0.000E+00,0.000E+00
1979-03-03 01:00:11.980 ,1979-03-03 01:00:17.920 ,8,-1,0.000E+00,0.000E+00,4.395E-02,4.395E-02,0.123,3.880E-02,0.000E+00,0.000E+00,0.000E+00,0.000E+00
1979-03-03 01:00:18.350 ,1979-03-03 01:00:41.920 ,7,-1,8.16,1.78,0.434,8.680E-02,0.400,5.765E-02,1.01,0.281,0.000E+00,0.000E+00
1979-03-03 01:00:42.350 ,1979-03-03 01:01:05.920 ,6,-1,8.87,1.89,0.218,5.461E-02,0.398,5.265E-02,1.25,0.311,0.000E+00,0.000E+00
1979-03-03 01:01:06.360 ,1979-03-03 01:01:29.920 ,5,-1,12.0,2.19,0.428,8.551E-02,0.412,5.826E-02,1.25,0.311,0.000E+00,0.000E+00
1979-03-03 01:01:30.360 ,1979-03-03 01:01:53.920 ,4,-1,8.36,1.87,0.132,4.390E-02,0.199,3.820E-02,0.156,0.110,0.000E+00,0.000E+00
1979-03-03 01:01:54.360 ,1979-03-03 01:02:17.920 ,3,-1,8.15,1.87,0.103,4.188E-02,9.888E-02,2.854E-02,0.000E+00,0.000E+00,0.000E+00,0.000E+00
1979-03-03 01:02:18.350 ,1979-03-03 01:02:41.920 ,2,-1,9.40,2.10,5.855E-02,2.927E-02,8.828E-02,2.548E-02,0.000E+00,0.000E+00,0.000E+00,0.000E+00
1979-03-03 01:02:41.980 ,1979-03-03 01:03:06.350 ,1,-1,7.68,2.90,0.243,0.109,0.204,4.165E-02,7.783E-02,4.493E-02,0.000E+00,0.000E+00
1979-03-03 01:03:06.350 ,1979-03-03 01:03:29.920 ,1,1,9.19,1.96,0.136,4.297E-02,0.250,4.172E-02,0.156,0.110,0.000E+00,0.000E+00
1979-03-03 01:03:30.350 ,1979-03-03 01:03:53.920 ,2,1,8.26,2.00,2.072E-02,1.465E-02,8.610E-02,2.152E-02,0.000E+00,0.000E+00,0.000E+00,0.000E+00
1979-03-03 01:03:54.350 ,1979-03-03 01:04:17.920 ,3,1,4.48,1.35,0.104,3.947E-02,0.149,3.338E-02,0.000E+00,0.000E+00,0.000E+00,0.000E+00
1979-03-03 01:04:18.360 ,1979-03-03 01:04:41.920 ,4,1,8.06,1.85,0.102,3.871E-02,0.154,3.370E-02,7.783E-02,7.783E-02,0.000E+00,0.000E+00
1979-03-03 01:04:42.360 ,1979-03-03 01:05:05.920 ,5,1,11.7,2.17,0.327,7.124E-02,0.416,5.648E-02,1.48,0.339,0.000E+00,0.000E+00
1979-03-03 01:05:06.360 ,1979-03-03 01:05:29.920 ,6,1,8.01,1.79,0.232,5.806E-02,0.358,5.116E-02,1.01,0.281,0.000E+00,0.000E+00
1979-03-03 01:05:30.360 ,1979-03-03 01:05:53.920 ,7,1,4.40,1.33,0.107,3.583E-02,0.277,4.171E-02,0.623,0.220,0.000E+00,0.000E+00
1979-03-03 01:05:54.360 ,1979-03-03 01:06:35.920 ,8,1,0.000E+00,0.000E+00,3.074E-02,1.537E-02,5.946E-02,1.649E-02,0.000E+00,0.000E+00,0.000E+00,0.000E+00
1979-03-03 01:06:35.980 ,1979-03-03 01:06:41.920 ,8,-1,0.000E+00,0.000E+00,0.000E+00,0.000E+00,9.372E-02,4.686E-02,0.000E+00,0.000E+00,0.000E+00,0.000E+00
1979-03-03 01:06:42.360 ,1979-03-03 01:07:05.920 ,7,-1,8.75,1.91,0.129,4.070E-02,0.274,4.271E-02,0.623,0.220,0.000E+00,0.000E+00
1979-03-03 01:07:06.360 ,1979-03-03 01:07:29.920 ,6,-1,14.3,2.41,0.376,8.019E-02,0.363,5.461E-02,1.56,0.348,0.000E+00,0.000E+00
1979-03-03 01:07:30.360 ,1979-03-03 01:07:53.920 ,5,-1,9.75,1.99,0.242,6.059E-02,0.332,5.002E-02,1.01,0.281,0.000E+00,0.000E+00
1979-03-03 01:07:54.360 ,1979-03-03 01:08:17.920 ,4,-1,11.8,2.36,6.536E-02,4.621E-02,0.258,5.493E-02,0.311,0.156,0.000E+00,0.000E+00
1979-03-03 01:08:18.360 ,1979-03-03 01:08:41.920 ,3,-1,5.13,1.48,5.500E-02,2.750E-02,9.826E-02,2.625E-02,0.000E+00,0.000E+00,0.000E+00,0.000E+00
1979-03-03 01:08:42.350 ,1979-03-03 01:09:05.920 ,2,-1,6.19,1.60,0.137,4.836E-02,0.132,3.296E-02,0.000E+00,0.000E+00,0.000E+00,0.000E+00
1979-03-03 01:09:05.980 ,1979-03-03 01:09:30.350 ,1,-1,5.55,2.48,0.118,6.818E-02,0.183,3.653E-02,2.594E-02,2.594E-02,0.000E+00,0.000E+00
1979-03-03 01:09:30.350 ,1979-03-03 01:09:53.920 ,1,1,10.4,2.22,0.131,6.536E-02,0.469,7.402E-02,0.000E+00,0.000E+00,0.000E+00,0.000E+00
1979-03-03 01:09:54.350 ,1979-03-03 01:10:17.920 ,2,1,7.40,1.85,5.669E-02,2.835E-02,9.335E-02,2.589E-02,0.000E+00,0.000E+00,0.000E+00,0.000E+00